Location: Unspecified
(0.0000°N, 0.0000°E)
Time: 03:01:03
(UTC+00:00)

METEOR M2 - Visible Passes

Search period start: 04 July 2020 00:00
Search period end: 14 July 2020 00:00
Orbit: 819 x 826 km, 98.5° (Epoch: 03 July)

Date Brightness Start Highest point End Pass type
(mag) Time Alt. Az. Time Alt. Az. Time Alt. Az.
04 Jul ? 19:09:19 21° E 19:10:36 22° ENE 19:14:41 10° NNE visible
04 Jul ? 20:50:44 24° W 20:50:44 24° W 20:54:42 10° NW visible
05 Jul ? 18:49:09 11° E 18:50:46 13° ENE 18:53:04 10° NE visible
05 Jul ? 20:30:34 41° WSW 20:30:37 41° WSW 20:35:38 10° NNW visible
06 Jul ? 20:10:24 68° SW 20:10:47 71° WSW 20:16:08 10° NNW visible
07 Jul ? 19:50:13 61° ESE 19:50:56 68° ENE 19:56:16 10° N visible
08 Jul ? 19:30:04 36° ESE 19:31:05 39° ENE 19:36:03 10° N visible
08 Jul ? 21:11:28 13° W 21:11:28 13° W 21:13:25 10° WNW visible
09 Jul ? 19:09:54 21° E 19:11:15 23° ENE 19:15:25 10° NNE visible
09 Jul ? 20:51:19 23° W 20:51:19 23° W 20:55:18 10° NW visible
10 Jul ? 18:49:44 12° E 18:51:25 13° ENE 18:53:53 10° NE visible
10 Jul ? 20:31:09 39° WSW 20:31:17 39° WSW 20:36:16 10° NW visible
11 Jul ? 20:10:59 65° SW 20:11:26 68° WSW 20:16:47 10° NNW visible
12 Jul ? 19:50:49 61° SE 19:51:35 71° ENE 19:56:56 10° N visible
13 Jul ? 19:30:40 36° ESE 19:31:45 41° ENE 19:36:45 10° N visible
13 Jul ? 21:12:05 13° W 21:12:05 13° W 21:13:56 10° WNW visible
